| time (UTC) | temp F | wind direction | speed MPH | gust MPH | rain 1hr in | rain 24hr in | rain mn in | humidity % | barometer mb |
| 20260506202426 | 58 | 24 | 3.0 | 11.0 | 0.00 | 0.02 | 0.02 | 83 | 1013.7 |
| 20260506201922 | 58 | 325 | 5.0 | 11.0 | 0.00 | 0.02 | 0.02 | 83 | 1013.5 |
| 20260506201420 | 58 | 331 | 3.0 | 5.0 | 0.00 | 0.02 | 0.02 | 83 | 1014.1 |
| 20260506200916 | 59 | 359 | 3.0 | 10.0 | 0.00 | 0.02 | 0.02 | 83 | 1013.9 |
| 20260506200413 | 58 | 326 | 4.0 | 7.0 | 0.00 | 0.02 | 0.02 | 83 | 1013.7 |
| 20260506195909 | 58 | 319 | 8.0 | 13.0 | 0.00 | 0.02 | 0.02 | 83 | 1013.9 |
| 20260506195407 | 58 | 348 | 8.0 | 8.0 | 0.00 | 0.02 | 0.02 | 83 | 1014.0 |
| 20260506194903 | 58 | 320 | 7.0 | 9.0 | 0.00 | 0.02 | 0.02 | 82 | 1014.3 |
| 20260506194400 | 59 | 297 | 1.0 | 4.0 | 0.00 | 0.02 | 0.02 | 82 | 1014.4 |
| 20260506193857 | 58 | 334 | 3.0 | 6.0 | 0.00 | 0.02 | 0.02 | 82 | 1013.7 |
| 20260506193354 | 59 | 304 | 6.0 | 7.0 | 0.00 | 0.02 | 0.02 | 81 | 1013.5 |
| 20260506192850 | 59 | 348 | 3.0 | 8.0 | 0.00 | 0.02 | 0.02 | 82 | 1013.5 |
| 20260506192347 | 59 | 308 | 6.0 | 12.0 | 0.00 | 0.02 | 0.02 | 82 | 1013.9 |
| 20260506191844 | 59 | 305 | 2.0 | 5.0 | 0.00 | 0.02 | 0.02 | 82 | 1014.1 |
| 20260506191340 | 59 | 314 | 4.0 | 7.0 | 0.00 | 0.02 | 0.02 | 82 | 1014.4 |
| 20260506190838 | 58 | 343 | 2.0 | 5.0 | 0.00 | 0.02 | 0.02 | 82 | 1014.2 |
| 20260506190334 | 59 | 350 | 2.0 | 6.0 | 0.00 | 0.02 | 0.02 | 81 | 1013.9 |
| 20260506185831 | 59 | 310 | 2.0 | 6.0 | 0.00 | 0.02 | 0.02 | 82 | 1013.6 |
| 20260506185328 | 59 | 269 | 0.0 | 4.0 | 0.00 | 0.02 | 0.02 | 81 | 1013.5 |
| 20260506184825 | 59 | 295 | 2.0 | 5.0 | 0.00 | 0.02 | 0.02 | 81 | 1013.1 |
| 20260506184322 | 59 | 341 | 4.0 | 5.0 | 0.00 | 0.02 | 0.02 | 81 | 1012.9 |
| 20260506183820 | 59 | 316 | 4.0 | 5.0 | 0.00 | 0.02 | 0.02 | 81 | 1013.9 |
| 20260506183314 | 59 | 282 | 0.0 | 2.0 | 0.00 | 0.02 | 0.02 | 81 | 1014.0 |
| 20260506182812 | 59 | 119 | 4.0 | 6.0 | 0.00 | 0.02 | 0.02 | 81 | 1013.7 |
| 20260506182309 | 59 | 51 | 3.0 | 4.0 | 0.00 | 0.02 | 0.02 | 81 | 1013.7 |
| 20260506181807 | 59 | 323 | 1.0 | 6.0 | 0.00 | 0.02 | 0.02 | 81 | 1013.4 |
| 20260506181304 | 59 | 124 | 3.0 | 4.0 | 0.00 | 0.02 | 0.02 | 81 | 1013.5 |
| 20260506180802 | 58 | 33 | 2.0 | 7.0 | 0.00 | 0.02 | 0.02 | 82 | 1013.0 |
| 20260506180257 | 58 | 293 | 4.0 | 7.0 | 0.00 | 0.02 | 0.02 | 82 | 1012.2 |
| 20260506175753 | 58 | 260 | 3.0 | 12.0 | 0.00 | 0.02 | 0.02 | 82 | 1011.8 |
| 20260506175251 | 58 | 345 | 3.0 | 6.0 | 0.00 | 0.02 | 0.02 | 82 | 1011.9 |
| 20260506174748 | 59 | 301 | 3.0 | 9.0 | 0.00 | 0.02 | 0.02 | 81 | 1012.0 |
| 20260506174245 | 59 | 328 | 4.0 | 7.0 | 0.00 | 0.02 | 0.02 | 80 | 1012.2 |
| 20260506173743 | 60 | 328 | 9.0 | 10.0 | 0.00 | 0.02 | 0.02 | 80 | 1012.6 |
| 20260506173239 | 59 | 274 | 3.0 | 7.0 | 0.00 | 0.02 | 0.02 | 80 | 1012.9 |
| 20260506172736 | 58 | 284 | 6.0 | 13.0 | 0.00 | 0.02 | 0.02 | 80 | 1013.9 |
| 20260506172233 | 58 | 280 | 2.0 | 5.0 | 0.00 | 0.02 | 0.02 | 81 | 1014.5 |
| 20260506171730 | 58 | 68 | 1.0 | 8.0 | 0.00 | 0.02 | 0.02 | 81 | 1014.8 |
| 20260506171228 | 59 | 294 | 1.0 | 3.0 | 0.00 | 0.02 | 0.02 | 81 | 1014.9 |
| 20260506170725 | 58 | 29 | 3.0 | 3.0 | 0.00 | 0.02 | 0.02 | 82 | 1014.9 |
| 20260506170221 | 58 | 23 | 5.0 | 5.0 | 0.00 | 0.02 | 0.02 | 82 | 1014.4 |
| 20260506165720 | 57 | 181 | 2.0 | 5.0 | 0.00 | 0.02 | 0.02 | 82 | 1013.3 |
| 20260506165216 | 57 | 331 | 3.0 | 6.0 | 0.00 | 0.02 | 0.02 | 82 | 1012.7 |
| 20260506164714 | 58 | 225 | 3.0 | 4.0 | 0.00 | 0.02 | 0.02 | 82 | 1012.9 |
| 20260506164211 | 57 | 274 | 3.0 | 5.0 | 0.00 | 0.02 | 0.02 | 83 | 1013.7 |
| 20260506163707 | 57 | 14 | 3.0 | 6.0 | 0.00 | 0.02 | 0.02 | 83 | 1014.0 |
| 20260506163202 | 57 | 161 | 2.0 | 3.0 | 0.00 | 0.02 | 0.02 | 84 | 1013.9 |
| 20260506162658 | 57 | 152 | 1.0 | 3.0 | 0.00 | 0.02 | 0.02 | 85 | 1014.0 |
| 20260506162156 | 56 | 59 | 2.0 | 6.0 | 0.00 | 0.02 | 0.02 | 85 | 1014.5 |
| 20260506161653 | 56 | 201 | 2.0 | 4.0 | 0.00 | 0.02 | 0.02 | 86 | 1014.4 |
| 20260506161150 | 56 | 172 | 2.0 | 6.0 | 0.00 | 0.02 | 0.02 | 86 | 1014.2 |
| 20260506160648 | 56 | 290 | 6.0 | 6.0 | 0.00 | 0.02 | 0.02 | 88 | 1014.1 |
| 20260506160144 | 55 | 332 | 4.0 | 6.0 | 0.00 | 0.02 | 0.02 | 88 | 1014.2 |
| 20260506155643 | 55 | 292 | 1.0 | 4.0 | 0.00 | 0.02 | 0.02 | 88 | 1014.3 |
| 20260506155140 | 55 | 310 | 5.0 | 5.0 | 0.00 | 0.02 | 0.02 | 88 | 1014.9 |
| 20260506153242 | 55 | 261 | 2.0 | 5.0 | 0.09 | 0.02 | 0.02 | 86 | 1014.8 |
| 20260506152739 | 55 | 319 | 5.0 | 5.0 | 0.00 | 0.00 | 0.00 | 84 | 1015.6 |
| 20260506152236 | 55 | 341 | 2.0 | 8.0 | 0.00 | 0.00 | 0.00 | 83 | 1015.5 |
| 20260506151735 | 55 | 312 | 6.0 | 6.0 | 0.00 | 0.00 | 0.00 | 83 | 1015.1 |
| 20260506151231 | 55 | 332 | 3.0 | 10.0 | 0.00 | 0.00 | 0.00 | 83 | 1014.9 |
| 20260506150727 | 55 | 324 | 3.0 | 8.0 | 0.00 | 0.00 | 0.00 | 83 | 1014.2 |
| 20260506150225 | 55 | 326 | 3.0 | 11.0 | 0.00 | 0.00 | 0.00 | 83 | 1014.0 |
| 20260506145722 | 55 | 325 | 4.0 | 8.0 | 0.00 | 0.00 | 0.00 | 83 | 1014.1 |
| 20260506145218 | 55 | 319 | 4.0 | 6.0 | 0.00 | 0.00 | 0.00 | 82 | 1014.3 |
| 20260506144716 | 55 | 309 | 3.0 | 10.0 | 0.00 | 0.00 | 0.00 | 83 | 1014.3 |
| 20260506144213 | 55 | 347 | 4.0 | 8.0 | 0.00 | 0.00 | 0.00 | 83 | 1014.0 |
| 20260506143710 | 55 | 319 | 3.0 | 11.0 | 0.00 | 0.00 | 0.00 | 82 | 1014.0 |
| 20260506143208 | 55 | 338 | 4.0 | 7.0 | 0.00 | 0.00 | 0.00 | 83 | 1014.0 |
| 20260506142706 | 55 | 2 | 2.0 | 6.0 | 0.00 | 0.00 | 0.00 | 83 | 1014.0 |
| 20260506142204 | 55 | 324 | 2.0 | 7.0 | 0.00 | 0.00 | 0.00 | 83 | 1014.0 |
| 20260506141702 | 55 | 326 | 4.0 | 8.0 | 0.00 | 0.00 | 0.00 | 83 | 1013.7 |
| 20260506141159 | 55 | 304 | 4.0 | 6.0 | 0.00 | 0.00 | 0.00 | 82 | 1013.5 |
| 20260506140657 | 55 | 71 | 5.0 | 6.0 | 0.00 | 0.00 | 0.00 | 83 | 1013.3 |
| 20260506140153 | 55 | 313 | 4.0 | 11.0 | 0.00 | 0.00 | 0.00 | 83 | 1013.1 |
| 20260506135650 | 55 | 319 | 2.0 | 9.0 | 0.00 | 0.00 | 0.00 | 82 | 1013.1 |
| 20260506135147 | 55 | 29 | 4.0 | 6.0 | 0.00 | 0.00 | 0.00 | 82 | 1013.4 |
| 20260506134643 | 55 | 313 | 5.0 | 8.0 | 0.00 | 0.00 | 0.00 | 83 | 1013.3 |
| 20260506134139 | 55 | 341 | 4.0 | 6.0 | 0.00 | 0.00 | 0.00 | 83 | 1013.2 |
| 20260506133637 | 55 | 335 | 3.0 | 6.0 | 0.00 | 0.00 | 0.00 | 83 | 1013.1 |
| 20260506133134 | 55 | 322 | 2.0 | 5.0 | 0.00 | 0.00 | 0.00 | 83 | 1012.9 |
| 20260506132631 | 55 | 290 | 4.0 | 4.0 | 0.00 | 0.00 | 0.00 | 84 | 1012.8 |
| 20260506132128 | 55 | 29 | 0.0 | 8.0 | 0.00 | 0.00 | 0.00 | 83 | 1012.8 |
| 20260506131625 | 55 | 0 | 3.0 | 6.0 | 0.00 | 0.00 | 0.00 | 83 | 1012.7 |
| 20260506131121 | 55 | 30 | 2.0 | 6.0 | 0.00 | 0.00 | 0.00 | 83 | 1012.6 |
| 20260506130619 | 55 | 353 | 2.0 | 7.0 | 0.00 | 0.00 | 0.00 | 83 | 1012.9 |
| 20260506130116 | 55 | 10 | 3.0 | 6.0 | 0.00 | 0.00 | 0.00 | 83 | 1012.8 |
| 20260506125614 | 55 | 7 | 2.0 | 5.0 | 0.00 | 0.00 | 0.00 | 82 | 1013.0 |
| 20260506125111 | 55 | 351 | 5.0 | 6.0 | 0.00 | 0.00 | 0.00 | 82 | 1012.5 |
| 20260506124609 | 55 | 341 | 3.0 | 6.0 | 0.00 | 0.00 | 0.00 | 82 | 1012.6 |
| 20260506124107 | 55 | 356 | 2.0 | 9.0 | 0.00 | 0.00 | 0.00 | 81 | 1012.3 |
| 20260506123604 | 55 | 321 | 3.0 | 8.0 | 0.00 | 0.00 | 0.00 | 81 | 1012.0 |
| 20260506123103 | 55 | 309 | 6.0 | 7.0 | 0.00 | 0.00 | 0.00 | 81 | 1012.1 |
| 20260506122559 | 55 | 321 | 4.0 | 8.0 | 0.00 | 0.00 | 0.00 | 80 | 1012.3 |
| 20260506122057 | 56 | 5 | 2.0 | 8.0 | 0.00 | 0.00 | 0.00 | 80 | 1012.2 |
| 20260506121554 | 56 | 322 | 5.0 | 10.0 | 0.00 | 0.00 | 0.00 | 80 | 1012.4 |
| 20260506121050 | 56 | 323 | 2.0 | 6.0 | 0.00 | 0.00 | 0.00 | 80 | 1012.1 |
| 20260506120549 | 56 | 356 | 0.0 | 4.0 | 0.00 | 0.00 | 0.00 | 80 | 1012.2 |
| 20260506120045 | 56 | 352 | 2.0 | 4.0 | 0.00 | 0.00 | 0.00 | 80 | 1012.0 |
| 20260506115543 | 56 | 25 | 3.0 | 7.0 | 0.00 | 0.00 | 0.00 | 80 | 1011.8 |
| 20260506115042 | 56 | 316 | 2.0 | 8.0 | 0.00 | 0.00 | 0.00 | 80 | 1011.6 |
| 20260506114538 | 56 | 339 | 4.0 | 9.0 | 0.00 | 0.00 | 0.00 | 80 | 1011.7 |
| 20260506114037 | 56 | 314 | 5.0 | 15.0 | 0.00 | 0.00 | 0.00 | 80 | 1011.6 |
| 20260506113535 | 57 | 317 | 4.0 | 11.0 | 0.00 | 0.00 | 0.00 | 79 | 1011.3 |
| 20260506113032 | 57 | 322 | 6.0 | 6.0 | 0.00 | 0.00 | 0.00 | 78 | 1011.6 |
| 20260506112528 | 57 | 316 | 4.0 | 8.0 | 0.00 | 0.00 | 0.00 | 78 | 1011.4 |
| 20260506112025 | 57 | 305 | 4.0 | 7.0 | 0.00 | 0.00 | 0.00 | 78 | 1011.1 |
| 20260506111523 | 57 | 326 | 7.0 | 9.0 | 0.00 | 0.00 | 0.00 | 78 | 1011.2 |
| 20260506111020 | 57 | 338 | 4.0 | 6.0 | 0.00 | 0.00 | 0.00 | 77 | 1011.2 |
| 20260506110518 | 57 | 295 | 2.0 | 8.0 | 0.00 | 0.00 | 0.00 | 77 | 1011.0 |
| 20260506110015 | 58 | 315 | 3.0 | 5.0 | 0.00 | 0.00 | 0.00 | 77 | 1010.9 |
| 20260506105511 | 58 | 327 | 1.0 | 4.0 | 0.00 | 0.00 | 0.00 | 77 | 1010.7 |
| 20260506105008 | 58 | 318 | 3.0 | 4.0 | 0.00 | 0.00 | 0.00 | 77 | 1010.7 |
| 20260506104506 | 58 | 323 | 2.0 | 3.0 | 0.00 | 0.00 | 0.00 | 76 | 1010.6 |
| 20260506104004 | 58 | 298 | 2.0 | 5.0 | 0.00 | 0.00 | 0.00 | 76 | 1010.5 |
| 20260506103501 | 58 | 24 | 3.0 | 8.0 | 0.00 | 0.00 | 0.00 | 76 | 1010.6 |
| 20260506102957 | 58 | 323 | 6.0 | 6.0 | 0.00 | 0.00 | 0.00 | 76 | 1010.3 |
| 20260506102456 | 58 | 342 | 3.0 | 4.0 | 0.00 | 0.00 | 0.00 | 76 | 1010.2 |
| 20260506101953 | 58 | 350 | 2.0 | 5.0 | 0.00 | 0.00 | 0.00 | 76 | 1010.2 |
| 20260506101449 | 58 | 295 | 5.0 | 5.0 | 0.00 | 0.00 | 0.00 | 76 | 1009.9 |
| 20260506100947 | 58 | 339 | 2.0 | 4.0 | 0.00 | 0.00 | 0.00 | 76 | 1010.0 |
| 20260506100445 | 58 | 287 | 3.0 | 3.0 | 0.00 | 0.00 | 0.00 | 77 | 1009.8 |
| 20260506095943 | 58 | 334 | 2.0 | 4.0 | 0.00 | 0.00 | 0.00 | 77 | 1010.0 |
| 20260506095441 | 59 | 299 | 2.0 | 4.0 | 0.00 | 0.00 | 0.00 | 77 | 1009.9 |
| 20260506094937 | 58 | 286 | 4.0 | 7.0 | 0.00 | 0.00 | 0.00 | 76 | 1010.0 |
| 20260506094436 | 59 | 0 | 4.0 | 5.0 | 0.00 | 0.00 | 0.00 | 77 | 1009.9 |
| 20260506093933 | 59 | 287 | 2.0 | 4.0 | 0.00 | 0.00 | 0.00 | 76 | 1009.9 |
| 20260506093431 | 58 | 349 | 2.0 | 4.0 | 0.00 | 0.00 | 0.00 | 76 | 1009.9 |
| 20260506092928 | 58 | 326 | 3.0 | 6.0 | 0.00 | 0.00 | 0.00 | 76 | 1009.8 |
| 20260506092426 | 58 | 337 | 3.0 | 6.0 | 0.00 | 0.00 | 0.00 | 76 | 1009.9 |
| 20260506091922 | 59 | 340 | 6.0 | 6.0 | 0.00 | 0.00 | 0.00 | 76 | 1009.8 |
| 20260506091421 | 59 | 343 | 2.0 | 5.0 | 0.00 | 0.00 | 0.00 | 77 | 1009.8 |
| 20260506090917 | 59 | 295 | 2.0 | 5.0 | 0.00 | 0.00 | 0.00 | 76 | 1009.5 |
| 20260506090415 | 59 | 308 | 2.0 | 4.0 | 0.00 | 0.00 | 0.00 | 76 | 1009.6 |
| 20260506085911 | 59 | 330 | 3.0 | 7.0 | 0.00 | 0.00 | 0.00 | 76 | 1009.5 |
| 20260506085408 | 59 | 8 | 4.0 | 6.0 | 0.00 | 0.00 | 0.00 | 77 | 1009.4 |
| 20260506084904 | 59 | 304 | 3.0 | 6.0 | 0.00 | 0.00 | 0.00 | 76 | 1009.4 |
| 20260506084401 | 59 | 248 | 2.0 | 4.0 | 0.00 | 0.00 | 0.00 | 76 | 1009.2 |
| 20260506083858 | 59 | 91 | 2.0 | 4.0 | 0.00 | 0.00 | 0.00 | 76 | 1009.2 |
| 20260506083355 | 59 | 43 | 2.0 | 4.0 | 0.00 | 0.00 | 0.00 | 76 | 1009.3 |
| 20260506082852 | 59 | 310 | 2.0 | 4.0 | 0.00 | 0.00 | 0.00 | 76 | 1009.2 |
| 20260506082349 | 60 | 2 | 3.0 | 3.0 | 0.00 | 0.00 | 0.00 | 77 | 1009.2 |
| 20260506081845 | 60 | 58 | 4.0 | 4.0 | 0.00 | 0.00 | 0.00 | 77 | 1009.2 |
| 20260506081344 | 60 | 256 | 2.0 | 4.0 | 0.00 | 0.00 | 0.00 | 77 | 1008.9 |
| 20260506080841 | 60 | 204 | 1.0 | 5.0 | 0.00 | 0.00 | 0.00 | 76 | 1009.1 |
| 20260506080337 | 60 | 196 | 1.0 | 5.0 | 0.00 | 0.00 | 0.00 | 77 | 1009.3 |
| 20260506073321 | 61 | 319 | 2.0 | 5.0 | 0.00 | 0.00 | 0.00 | 77 | 1009.4 |
| 20260506072818 | 61 | 358 | 3.0 | 5.0 | 0.00 | 0.00 | 0.00 | 77 | 1009.4 |
| 20260506072316 | 61 | 338 | 6.0 | 6.0 | 0.00 | 0.00 | 0.00 | 77 | 1009.7 |
| 20260506071813 | 61 | 19 | 3.0 | 4.0 | 0.00 | 0.00 | 0.00 | 77 | 1009.3 |
| 20260506071311 | 61 | 125 | 1.0 | 4.0 | 0.00 | 0.00 | 0.00 | 77 | 1009.2 |
| 20260506070808 | 61 | 336 | 2.0 | 5.0 | 0.00 | 0.00 | 0.00 | 78 | 1009.4 |
| 20260506070305 | 62 | 1 | 5.0 | 6.0 | 0.00 | 0.00 | 0.00 | 78 | 1009.3 |
| 20260506062242 | 63 | 15 | 5.0 | 10.0 | 0.00 | 0.00 | 0.00 | 79 | 1009.0 |
| 20260506061737 | 63 | 319 | 3.0 | 4.0 | 0.00 | 0.00 | 0.00 | 79 | 1009.2 |
| 20260506061235 | 63 | 137 | 1.0 | 4.0 | 0.00 | 0.00 | 0.00 | 79 | 1009.4 |
| 20260506060734 | 63 | 59 | 0.0 | 4.0 | 0.00 | 0.00 | 0.00 | 79 | 1009.1 |
| 20260506060231 | 63 | 275 | 1.0 | 3.0 | 0.00 | 0.00 | 0.00 | 79 | 1009.2 |
| 20260506051202 | 67 | 325 | 6.0 | 6.0 | 0.00 | 0.00 | 0.00 | 78 | 1008.7 |
| 20260506050701 | 67 | 33 | 1.0 | 6.0 | 0.00 | 0.00 | 0.00 | 78 | 1009.0 |
| 20260506050157 | 67 | 328 | 3.0 | 9.0 | 0.00 | 0.00 | 0.00 | 77 | 1008.8 |
| 20260506044649 | 69 | 327 | 3.0 | 5.0 | 0.00 | 0.00 | 0.00 | 78 | 1008.5 |
| 20260506044145 | 69 | 337 | 4.0 | 6.0 | 0.00 | 0.00 | 0.00 | 78 | 1008.5 |
| 20260506043643 | 69 | 328 | 2.0 | 6.0 | 0.00 | 0.00 | 0.00 | 78 | 1008.5 |
| 20260506043140 | 69 | 349 | 4.0 | 4.0 | 0.00 | 0.00 | 0.00 | 77 | 1008.2 |
| 20260506042639 | 69 | 308 | 5.0 | 7.0 | 0.00 | 0.00 | 0.00 | 77 | 1008.2 |
| 20260506042137 | 70 | 310 | 3.0 | 7.0 | 0.00 | 0.00 | 0.00 | 77 | 1008.3 |
| 20260506041635 | 70 | 290 | 3.0 | 10.0 | 0.00 | 0.00 | 0.00 | 77 | 1008.2 |
| 20260506041131 | 70 | 301 | 3.0 | 7.0 | 0.00 | 0.00 | 0.00 | 77 | 1008.1 |
| 20260506040629 | 71 | 307 | 4.0 | 11.0 | 0.00 | 0.00 | 0.00 | 76 | 1008.3 |
| 20260506040126 | 71 | 301 | 4.0 | 11.0 | 0.00 | 0.00 | 0.00 | 77 | 1008.2 |
| 20260506035623 | 71 | 359 | 4.0 | 7.0 | 0.00 | 0.00 | 0.00 | 76 | 1008.1 |
| 20260506035119 | 71 | 317 | 6.0 | 9.0 | 0.00 | 0.00 | 0.00 | 77 | 1007.8 |
| 20260506034617 | 71 | 304 | 2.0 | 5.0 | 0.00 | 0.00 | 0.00 | 77 | 1007.8 |
| 20260506034113 | 72 | 316 | 4.0 | 8.0 | 0.00 | 0.00 | 0.00 | 76 | 1007.7 |
| 20260506033611 | 72 | 330 | 3.0 | 7.0 | 0.00 | 0.00 | 0.00 | 76 | 1008.0 |
| 20260506033108 | 73 | 333 | 6.0 | 6.0 | 0.00 | 0.00 | 0.00 | 76 | 1007.6 |
| 20260506032605 | 74 | 290 | 4.0 | 6.0 | 0.00 | 0.00 | 0.00 | 75 | 1007.7 |
| 20260506032102 | 74 | 327 | 5.0 | 10.0 | 0.00 | 0.00 | 0.00 | 75 | 1007.7 |
| 20260506031559 | 74 | 301 | 4.0 | 11.0 | 0.00 | 0.00 | 0.00 | 74 | 1007.6 |
| 20260506031056 | 74 | 291 | 2.0 | 8.0 | 0.00 | 0.00 | 0.00 | 74 | 1007.3 |
| 20260506030554 | 75 | 331 | 4.0 | 9.0 | 0.00 | 0.00 | 0.00 | 74 | 1007.1 |
| 20260506030051 | 75 | 314 | 4.0 | 7.0 | 0.00 | 0.00 | 0.00 | 75 | 1006.8 |
| 20260506025548 | 75 | 328 | 5.0 | 6.0 | 0.00 | 0.00 | 0.00 | 74 | 1006.9 |
| 20260506025044 | 75 | 308 | 5.0 | 6.0 | 0.00 | 0.00 | 0.00 | 75 | 1006.7 |
| 20260506024541 | 75 | 298 | 3.0 | 4.0 | 0.00 | 0.00 | 0.00 | 74 | 1006.2 |
| 20260506024038 | 75 | 328 | 1.0 | 6.0 | 0.00 | 0.00 | 0.00 | 74 | 1006.4 |
| 20260506023534 | 76 | 317 | 3.0 | 5.0 | 0.00 | 0.00 | 0.00 | 74 | 1006.2 |
| 20260506023032 | 76 | 301 | 5.0 | 7.0 | 0.00 | 0.00 | 0.00 | 73 | 1005.9 |
| 20260506022529 | 77 | 343 | 4.0 | 10.0 | 0.00 | 0.00 | 0.00 | 72 | 1005.9 |
| 20260506022026 | 80 | 288 | 5.0 | 5.0 | 0.00 | 0.00 | 0.00 | 77 | 1005.8 |
| 20260506021523 | 80 | 257 | 4.0 | 6.0 | 0.00 | 0.00 | 0.00 | 77 | 1005.9 |
| 20260506021021 | 80 | 148 | 2.0 | 3.0 | 0.00 | 0.00 | 0.00 | 77 | 1005.2 |
| 20260506020518 | 80 | 130 | 2.0 | 3.0 | 0.00 | 0.00 | 0.00 | 76 | 1005.6 |
| 20260506020016 | 80 | 265 | 4.0 | 5.0 | 0.00 | 0.00 | 0.00 | 76 | 1005.9 |
| 20260506015513 | 80 | 219 | 2.0 | 5.0 | 0.00 | 0.00 | 0.00 | 76 | 1005.7 |
| 20260506015009 | 80 | 261 | 2.0 | 6.0 | 0.00 | 0.00 | 0.00 | 76 | 1005.5 |
| 20260506014507 | 80 | 150 | 2.0 | 4.0 | 0.00 | 0.00 | 0.00 | 76 | 1005.3 |
| 20260506014003 | 80 | 221 | 2.0 | 4.0 | 0.00 | 0.00 | 0.00 | 76 | 1005.5 |
| 20260506013501 | 80 | 264 | 2.0 | 5.0 | 0.00 | 0.00 | 0.00 | 76 | 1005.6 |
| 20260506012957 | 80 | 179 | 2.0 | 4.0 | 0.00 | 0.00 | 0.00 | 76 | 1005.6 |
| 20260506012453 | 80 | 225 | 3.0 | 6.0 | 0.00 | 0.00 | 0.00 | 76 | 1005.2 |
| 20260506011951 | 80 | 219 | 4.0 | 8.0 | 0.00 | 0.00 | 0.00 | 77 | 1004.7 |
| 20260506011448 | 80 | 141 | 6.0 | 10.0 | 0.00 | 0.00 | 0.00 | 77 | 1004.4 |
| 20260506010944 | 80 | 174 | 3.0 | 5.0 | 0.00 | 0.00 | 0.00 | 76 | 1005.0 |
| 20260506010443 | 80 | 146 | 6.0 | 6.0 | 0.00 | 0.00 | 0.00 | 76 | 1005.0 |
| 20260506005939 | 80 | 184 | 4.0 | 7.0 | 0.00 | 0.00 | 0.00 | 76 | 1005.1 |
| 20260506005437 | 80 | 174 | 8.0 | 9.0 | 0.00 | 0.00 | 0.00 | 76 | 1005.0 |
| 20260506004932 | 80 | 168 | 5.0 | 8.0 | 0.00 | 0.00 | 0.00 | 76 | 1004.9 |
| 20260506004431 | 80 | 150 | 9.0 | 10.0 | 0.00 | 0.00 | 0.00 | 75 | 1004.7 |
| 20260506003926 | 80 | 150 | 7.0 | 9.0 | 0.00 | 0.00 | 0.00 | 75 | 1004.7 |
| 20260506003423 | 80 | 152 | 8.0 | 10.0 | 0.00 | 0.00 | 0.00 | 75 | 1004.7 |
| 20260506002919 | 81 | 153 | 6.0 | 9.0 | 0.00 | 0.00 | 0.00 | 75 | 1004.6 |
| 20260506002415 | 81 | 152 | 7.0 | 15.0 | 0.00 | 0.00 | 0.00 | 75 | 1004.6 |
| 20260506001911 | 81 | 150 | 10.0 | 13.0 | 0.00 | 0.00 | 0.00 | 74 | 1004.7 |
| 20260506001408 | 81 | 167 | 15.0 | 15.0 | 0.00 | 0.00 | 0.00 | 74 | 1004.4 |
| 20260506000905 | 81 | 150 | 10.0 | 15.0 | 0.00 | 0.00 | 0.00 | 74 | 1004.3 |
| 20260506000403 | 81 | 182 | 10.0 | 19.0 | 0.00 | 0.00 | 0.00 | 74 | 1004.3 |
| 20260505235859 | 81 | 151 | 13.0 | 16.0 | 0.00 | 0.00 | 0.00 | 74 | 1004.0 |
| 20260505235358 | 82 | 153 | 12.0 | 16.0 | 0.00 | 0.00 | 0.00 | 73 | 1004.1 |
| 20260505234854 | 82 | 159 | 9.0 | 12.0 | 0.00 | 0.00 | 0.00 | 72 | 1004.4 |
| 20260505234352 | 82 | 144 | 7.0 | 13.0 | 0.00 | 0.00 | 0.00 | 73 | 1004.5 |
| 20260505233848 | 82 | 177 | 10.0 | 13.0 | 0.00 | 0.00 | 0.00 | 72 | 1004.4 |
| 20260505233346 | 83 | 159 | 6.0 | 16.0 | 0.00 | 0.00 | 0.00 | 72 | 1004.2 |
| 20260505232843 | 83 | 191 | 6.0 | 12.0 | 0.00 | 0.00 | 0.00 | 71 | 1004.2 |
| 20260505232341 | 83 | 161 | 8.0 | 13.0 | 0.00 | 0.00 | 0.00 | 71 | 1004.2 |
| 20260505231837 | 84 | 165 | 7.0 | 10.0 | 0.00 | 0.00 | 0.00 | 70 | 1004.3 |
| 20260505231335 | 83 | 180 | 10.0 | 18.0 | 0.00 | 0.00 | 0.00 | 70 | 1004.2 |
| 20260505230833 | 84 | 165 | 9.0 | 19.0 | 0.00 | 0.00 | 0.00 | 70 | 1004.1 |
| 20260505230330 | 84 | 144 | 9.0 | 15.0 | 0.00 | 0.00 | 0.00 | 70 | 1003.7 |
| 20260505225827 | 84 | 166 | 10.0 | 13.0 | 0.00 | 0.00 | 0.00 | 69 | 1003.9 |
| 20260505225324 | 85 | 172 | 4.0 | 18.0 | 0.00 | 0.00 | 0.00 | 68 | 1004.0 |
| 20260505224819 | 85 | 163 | 10.0 | 18.0 | 0.00 | 0.00 | 0.00 | 69 | 1004.0 |
| 20260505224317 | 86 | 155 | 9.0 | 13.0 | 0.00 | 0.00 | 0.00 | 69 | 1003.7 |
| 20260505223814 | 85 | 162 | 9.0 | 17.0 | 0.00 | 0.00 | 0.00 | 69 | 1004.1 |
| 20260505223311 | 85 | 159 | 11.0 | 16.0 | 0.00 | 0.00 | 0.00 | 67 | 1004.0 |
| 20260505222807 | 86 | 150 | 9.0 | 13.0 | 0.00 | 0.00 | 0.00 | 67 | 1003.9 |
| 20260505222305 | 86 | 153 | 12.0 | 18.0 | 0.00 | 0.00 | 0.00 | 67 | 1003.8 |
| 20260505221800 | 86 | 173 | 9.0 | 13.0 | 0.00 | 0.00 | 0.00 | 67 | 1003.8 |
| 20260505221257 | 86 | 198 | 6.0 | 12.0 | 0.00 | 0.00 | 0.00 | 66 | 1003.8 |
| 20260505220754 | 85 | 183 | 6.0 | 15.0 | 0.00 | 0.00 | 0.00 | 67 | 1003.7 |
| 20260505220251 | 86 | 188 | 7.0 | 14.0 | 0.00 | 0.00 | 0.00 | 66 | 1003.7 |
| 20260505215749 | 86 | 158 | 9.0 | 16.0 | 0.00 | 0.00 | 0.00 | 68 | 1003.7 |
| 20260505215247 | 85 | 157 | 5.0 | 16.0 | 0.00 | 0.00 | 0.00 | 68 | 1003.8 |
| 20260505214744 | 85 | 177 | 6.0 | 15.0 | 0.00 | 0.00 | 0.00 | 67 | 1003.9 |
| 20260505214241 | 85 | 160 | 11.0 | 14.0 | 0.00 | 0.00 | 0.00 | 68 | 1003.8 |
| 20260505213738 | 85 | 164 | 6.0 | 13.0 | 0.00 | 0.00 | 0.00 | 67 | 1003.9 |
| 20260505213236 | 85 | 157 | 13.0 | 14.0 | 0.00 | 0.00 | 0.00 | 67 | 1004.1 |
| 20260505212732 | 84 | 164 | 9.0 | 15.0 | 0.00 | 0.00 | 0.00 | 68 | 1004.1 |
| 20260505212229 | 85 | 219 | 8.0 | 15.0 | 0.00 | 0.00 | 0.00 | 67 | 1004.2 |
| 20260505211726 | 86 | 169 | 7.0 | 17.0 | 0.00 | 0.00 | 0.00 | 66 | 1004.4 |
| 20260505211224 | 86 | 186 | 8.0 | 13.0 | 0.00 | 0.00 | 0.00 | 66 | 1004.2 |
| 20260505210720 | 85 | 183 | 7.0 | 16.0 | 0.00 | 0.00 | 0.00 | 67 | 1004.2 |
| 20260505210216 | 84 | 150 | 13.0 | 17.0 | 0.00 | 0.00 | 0.00 | 68 | 1004.3 |
| 20260505205714 | 86 | 145 | 10.0 | 15.0 | 0.00 | 0.00 | 0.00 | 66 | 1004.4 |
| 20260505205212 | 85 | 145 | 12.0 | 19.0 | 0.00 | 0.00 | 0.00 | 67 | 1004.5 |
| 20260505204708 | 85 | 169 | 6.0 | 12.0 | 0.00 | 0.00 | 0.00 | 67 | 1004.6 |
| 20260505204206 | 85 | 157 | 10.0 | 15.0 | 0.00 | 0.00 | 0.00 | 67 | 1004.6 |
| 20260505203704 | 85 | 144 | 17.0 | 19.0 | 0.00 | 0.00 | 0.00 | 67 | 1004.6 |
| 20260505203200 | 85 | 155 | 11.0 | 20.0 | 0.00 | 0.00 | 0.00 | 67 | 1004.6 |
| 20260505202656 | 85 | 206 | 5.0 | 14.0 | 0.00 | 0.00 | 0.00 | 66 | 1004.8 |